Content
SEND FEEDBACK

Daily
Averages
Monthly
Summary
United States of America

BERKELEY, MISSOURI


Home > North America > United States > Missouri
Elevation: 564 feet     Latitude: 38 45N     Longitude: 090 22W

WEATHER
 
SELECT A DAY
Number of Records: 206,484;   Date Range: 1/1/95 - 10/19/14
 
SHARE

PRINT THIS DATA

[ ← Previous Day ]
WEATHER ALMANAC - MAY 10, 2013
[ Next Day → ]
[ °C ]   °F
Weather ElementAverageHighLow
Temperature62.2 °F66.9 °F (1:51 am)55.4 °F (11:39 pm)
Dewpoint55.2 °F59 °F (1:51 am)48.2 °F (11:39 pm)
Humidity78.3 %90 % (3:51 pm)70 % (1:51 pm)
Barometer29.91 in30.01 in (11:39 pm)29.83 in (2:51 am)
Wind Speed9 mph13.8 mph (5:51 pm)
Weather ElementAverage
Visibility9.6 mi
Wind DirectionWNW (301.1 °)

Weather ElementTotal
Precipitation---
Heating Degree Days3.8 (Base 65)
Growing Degree Days11.2 (Base 50)
Averaged from 27 records on May 10, 2013
WEATHER CONDITIONS BREAKOUT
WIND DIRECTION BREAKOUT
WEATHER BY HOUR - MAY 10, 2013
[ °C ]   °F
Local TimeTemperatureDewpointHumidityBarometerVisibilityWind DirectionWind SpeedGust SpeedPrecipitationEventsConditions
1:51 AM66.9 °F59.0 °F76 %29.86 in10.0 miSSW (210°)8.1 mph0.00 inOvercast
2:51 AM64.9 °F59.0 °F81 %29.83 in10.0 miSW (220°)3.5 mphOvercast
3:51 AM64.0 °F59.0 °F84 %29.84 in10.0 miWSW (240°)4.6 mphOvercast
4:51 AM63.0 °F57.9 °F84 %29.83 in10.0 miWSW (240°)3.5 mphMostly Cloudy
5:51 AM62.1 °F57.0 °F84 %29.85 in10.0 miWSW (240°)3.5 mphMostly Cloudy
6:51 AM63.0 °F57.0 °F81 %29.86 in10.0 miWest (260°)8.1 mphMostly Cloudy
7:51 AM66.0 °F57.9 °F75 %29.86 in10.0 miWest (280°)8.1 mphMostly Cloudy
8:07 AM64.4 °F57.2 °F77 %29.88 in10.0 miWNW (300°)9.2 mphOvercast
8:51 AM66.0 °F59.0 °F78 %29.88 in10.0 miNW (310°)4.6 mphOvercast
9:51 AM64.9 °F57.9 °F78 %29.88 in10.0 miNW (320°)10.4 mphOvercast
10:28 AM66.2 °F57.2 °F73 %29.90 in10.0 miNW (320°)11.5 mphOvercast
10:51 AM66.0 °F57.9 °F75 %29.90 in10.0 miWNW (300°)9.2 mphOvercast
11:51 AM64.9 °F55.9 °F73 %29.91 in10.0 miWNW (300°)8.1 mphOvercast
12:51 PM64.9 °F55.9 °F73 %29.91 in10.0 miNW (310°)11.5 mphOvercast
1:51 PM64.9 °F55.0 °F70 %29.91 in10.0 miWNW (300°)8.1 mphOvercast
2:51 PM63.0 °F55.9 °F78 %29.93 in10.0 miNNW (330°)11.5 mphOvercast
3:44 PM60.8 °F57.2 °F88 %29.94 in5.0 miNW (320°)10.4 mph0.00 inRainLight Rain
3:51 PM60.1 °F57.0 °F90 %29.93 in5.0 miNW (320°)12.7 mph0.00 inRainLight Rain
4:51 PM61.0 °F55.0 °F81 %29.94 in10.0 miNW (320°)12.7 mph0.00 inOvercast
5:51 PM60.1 °F53.1 °F78 %29.94 in10.0 miNW (320°)13.8 mphOvercast
6:51 PM60.1 °F53.1 °F78 %29.96 in10.0 miNNW (330°)10.4 mphOvercast
7:51 PM59.0 °F51.1 °F75 %29.96 in10.0 miNW (320°)12.7 mphOvercast
8:51 PM57.9 °F50.0 °F75 %29.96 in10.0 miNNW (340°)10.4 mphOvercast
9:51 PM57.0 °F50.0 °F77 %29.99 in10.0 miNorth (350°)10.4 mphOvercast
10:51 PM55.9 °F48.9 °F77 %29.99 in10.0 miNorth (350°)9.2 mphMostly Cloudy
11:39 PM55.4 °F48.2 °F77 %30.01 in10.0 miNNW (340°)9.2 mphOvercast
11:51 PM55.9 °F48.9 °F77 %30.01 in10.0 miNNW (340°)6.9 mphOvercast
Hourly data recorded from KSTL, located miles away from Berkeley, Missouri







STORIES FROM OUR PARTNERS